Tel Aviv, Israel

4:49 AM IDT on July 26, 2017 (GMT +0300)
Ben Gurion

Weather History for LLBG - December, 2012

Change the Weather History Date:

Thursday, December 27, 2012

  Actual Average Record
Temperature  
Mean Temperature 60 °F -  
Max Temperature 68 °F 61 °F 82 °F (1996)
Min Temperature 51 °F 47 °F 43 °F (2013)
Degree Days  
Heating Degree Days 6    
Growing Degree Days 10 (Base 50)    
Moisture  
Dew Point 51 °F    
Average Humidity 75    
Maximum Humidity 94    
Minimum Humidity 56    
Precipitation  
Precipitation 0.00 in - - ()
Sea Level Pressure  
Sea Level Pressure 30.20 in    
Wind  
Wind Speed 3 mph ()    
Max Wind Speed 8 mph    
Max Gust Speed -    
Visibility 6.2 miles    
Events      
Averages and records for this station are not official NWS values.
T = Trace of Precipitation, MM = Missing Value Source: Averaged Metar Reports

Daily Weather History Graph

Daily Weather History Graph

Search for Another Location

Airport or City:

Trip Planner

Search our weather history database for the weather conditions in past years. The results will help you decide how hot, cold, wet, or windy it might be!

Date:

Astronomy

Dec. 27, 2012 Rise Set
Actual Time 6:39 AM IST 4:43 PM IST
Civil Twilight 6:12 AM IST 5:10 PM IST
Nautical Twilight 5:42 AM IST 5:41 PM IST
Astronomical Twilight 5:12 AM IST 6:11 PM IST
Moon 4:07 PM IST (12/27) 5:36 AM IST (12/27)
Length of Visible Light 10h 58m
Length of Day
10h 04m
Waxing Gibbous, 99% of the Moon is Illuminated
Dec 27
Waxing Gibbous
Dec 28
Full
Jan 5
Last Quarter
Jan 11
New
Jan 19
First Quarter

Hourly Weather History & Observations

Time (IST) Temp. Dew Point Humidity Pressure Visibility Wind Dir Wind Speed Gust Speed Precip Events Conditions
12:50 AM 57.2 °F 51.8 °F 82% 30.21 in - East 2.3 mph - N/A   Clear
1:50 AM 55.4 °F 51.8 °F 88% 30.21 in - East 2.3 mph - N/A   Clear
2:00 AM 55 °F 51 °F 82% 30.23 in 6 mi East 2.3 mph - -  
2:50 AM 53.6 °F 50.0 °F 88% 30.21 in - East 2.3 mph - N/A   Clear
3:50 AM 51.8 °F 50.0 °F 94% 30.21 in - East 2.3 mph - N/A   Clear
4:50 AM 51.8 °F 48.2 °F 88% 30.21 in 6.2 mi Calm Calm - N/A   Partly Cloudy
5:50 AM 53.6 °F 50.0 °F 88% 30.24 in 6.2 mi ENE 3.5 mph - N/A   Mostly Cloudy
6:50 AM 53.6 °F 50.0 °F 88% 30.24 in 6.2 mi Variable 1.2 mph - N/A   Mostly Cloudy
7:50 AM 55.4 °F 51.8 °F 88% 30.24 in 6.2 mi East 2.3 mph - N/A   Scattered Clouds
8:00 AM 56 °F 51 °F 80% 30.26 in 6 mi East 2.3 mph - -   Partly Cloudy
8:50 AM 60.8 °F 51.8 °F 72% 30.24 in - East 2.3 mph - N/A   Clear
9:50 AM 64.4 °F 53.6 °F 68% 30.24 in - Variable 1.2 mph - N/A   Clear
10:50 AM 66.2 °F 51.8 °F 60% 30.21 in 6.2 mi NE 3.5 mph - N/A   Partly Cloudy
11:50 AM 66.2 °F 51.8 °F 60% 30.18 in 6.2 mi North 5.8 mph - N/A   Scattered Clouds
12:50 PM 68.0 °F 51.8 °F 56% 30.18 in 6.2 mi WNW 5.8 mph - N/A   Scattered Clouds
1:50 PM 68.0 °F 51.8 °F 56% 30.15 in 6.2 mi NW 5.8 mph - N/A   Scattered Clouds
2:50 PM 68.0 °F 53.6 °F 60% 30.15 in 6.2 mi North 8.1 mph - N/A   Scattered Clouds
3:50 PM 66.2 °F 51.8 °F 60% 30.15 in 6.2 mi NW 8.1 mph - N/A   Partly Cloudy
4:50 PM 64.4 °F 51.8 °F 64% 30.15 in 6.2 mi NNW 5.8 mph - N/A   Partly Cloudy
5:50 PM 62.6 °F 51.8 °F 68% 30.15 in - North 4.6 mph - N/A   Clear
6:50 PM 60.8 °F 51.8 °F 72% 30.18 in - NNE 5.8 mph - N/A   Clear
7:50 PM 59.0 °F 51.8 °F 77% 30.18 in - ENE 2.3 mph - N/A   Clear
8:00 PM 60 °F 51 °F 64% 30.19 in 6 mi ENE 2.3 mph - -  
8:50 PM 57.2 °F 51.8 °F 82% 30.18 in - East 3.5 mph - N/A   Clear
9:50 PM 55.4 °F 50.0 °F 82% 30.18 in - ENE 2.3 mph - N/A   Clear
10:50 PM 55.4 °F 48.2 °F 77% 30.15 in - ENE 2.3 mph - N/A   Clear
11:50 PM 53.6 °F 48.2 °F 82% 30.15 in - East 2.3 mph - N/A   Clear